This is the latest recevied weather packets stored in our database for station/object N3FAA. If no packets are shown the sender has not sent any weather packets the latest 10 day(s).
| Time | Temp. | Humidity | Pressure | Rain* | Wind** | Luminosity | Snow |
|---|---|---|---|---|---|---|---|
| 1777857744 | 15° C | 61% | 1007.3 hPa | 0 mm | - | 138 W/m² | - |
| 1777857441 | 15° C | 61% | 1007.5 hPa | 0 mm | - | 142 W/m² | - |
| 1777857138 | 15° C | 59% | 1007.5 hPa | 0 mm | - | 167 W/m² | - |
| 1777856834 | 15° C | 59% | 1007.5 hPa | 0 mm | - | 191 W/m² | - |
| 1777856529 | 15° C | 59% | 1007.5 hPa | 0 mm | - | 181 W/m² | - |
| 1777856226 | 15.56° C | 59% | 1007.9 hPa | 0 mm | - | 187 W/m² | - |
| 1777855923 | 15.56° C | 59% | 1007.5 hPa | 0 mm | - | 206 W/m² | - |
| 1777855621 | 16.11° C | 58% | 1007.8 hPa | 0 mm | - | 269 W/m² | - |
| 1777855318 | 16.11° C | 58% | 1007.9 hPa | 0 mm | - | 290 W/m² | - |
| 1777855014 | 16.11° C | 56% | 1007.9 hPa | 0 mm | - | 303 W/m² | - |
| 1777854711 | 15.56° C | 58% | 1008 hPa | 0 mm | - | 319 W/m² | - |
| 1777854408 | 16.11° C | 58% | 1007.8 hPa | 0 mm | - | 336 W/m² | - |
| 1777854105 | 16.11° C | 57% | 1007.5 hPa | 0 mm | - | 362 W/m² | - |
| 1777853803 | 16.11° C | 56% | 1007.7 hPa | 0 mm | - | 377 W/m² | - |
| 1777853499 | 16.11° C | 56% | 1007.7 hPa | 0 mm | - | 394 W/m² | - |
| 1777853196 | 16.67° C | 57% | 1007.5 hPa | 0 mm | - | 410 W/m² | - |
| 1777852894 | 16.67° C | 57% | 1007.7 hPa | 0 mm | - | 436 W/m² | - |
| 1777852591 | 16.67° C | 56% | 1007.7 hPa | 0 mm | - | 418 W/m² | - |
| 1777852288 | 17.22° C | 55% | 1007.5 hPa | 0 mm | - | 416 W/m² | - |
| 1777851986 | 17.22° C | 56% | 1007.9 hPa | 0 mm | - | 470 W/m² | - |
| 1777851684 | 16.67° C | 56% | 1007.8 hPa | 0 mm | - | 502 W/m² | - |
| 1777851381 | 16.67° C | 58% | 1007.6 hPa | 0 mm | - | 512 W/m² | - |
| 1777851076 | 17.22° C | 56% | 1007.6 hPa | 0 mm | - | 537 W/m² | - |
| 1777850773 | 16.67° C | 57% | 1007.8 hPa | 0 mm | - | 554 W/m² | - |
| 1777850471 | 16.67° C | 57% | 1007.8 hPa | 0 mm | - | 588 W/m² | - |
* Rain latest hour (hover to see other rain measurements)
** Current wind speed in m/s (hover to see current wind gust speed)